map of IHR home
IHR - Airport
Location
City:  Iranshahr, Sistan va Baluchestan, Iran
Near (Alt.):Iran Shahr
ICAO:OIZI
IATA:IHR

Details
Type:Airport (Aerodrome, Airfield)
Latitude:2714'10"N (27.236117)
Longitude:6043'12"E (60.720039)
Datum:WGS 1984
Elevation:2040 ft (622 m)
Variation:2.04E (WMM2015v2 magnetic declination)
0.06 annual change
Runways:1
Longest:7711 × 150 ft (2350 × 45.5 m), paved

Time
Time Zone:UTC+3:30 (DST+4:30)
Local Time:

Weather
METAR:OIZI 041400Z 12004KT 9999 FEW035CB SCT040TCU 18/13 Q1017

Related Locations
Nearby:
Farthest:IPC: 11840 mi / 19054 km
Easter Island (Isla de Pascua, Rapa Nui) [Mataveri Intl], VS, CL

Find:

   beyond  
but within

Other Information
Maps:
NOTAMs:
Links:
Sources:

  
  • flag of Iran
  

Sectional Chart

Flight Planning
at skyvector.com

Satellite Image

Google Maps Satellite view

 

Copyright © 2004-2019 Karl L. Swartz. All rights reserved.
The Great Circle Mapper name and logo are trademarks of the Great Circle Mapper.
All other trademarks mentioned herein belong to their respective owners.
Please see credits for attibutions and further copyright information.

  Follow gcmap on Facebook Follow gcmap on Twitter GCmap on LinkedIn

hCard Microformat

Geo Microformat